TimeEST,TemperatureF,Dew PointF,Humidity,Sea Level PressureIn,VisibilityMPH,Wind Direction,Wind SpeedMPH,Gust SpeedMPH,PrecipitationIn,Events,Conditions,WindDirDegrees,DateUTC
12:51 AM,33.1,19.9,59,30.20,10.0,North,6.9,-,N/A,,Clear,10,2012-11-06 05:51:00
1:51 AM,30.9,19.9,64,30.20,10.0,NNE,8.1,-,N/A,,Clear,20,2012-11-06 06:51:00
2:51 AM,30.0,19.9,66,30.19,10.0,North,6.9,-,N/A,,Clear,10,2012-11-06 07:51:00
3:51 AM,30.0,19.9,66,30.19,10.0,NNE,4.6,-,N/A,,Clear,30,2012-11-06 08:51:00
4:51 AM,28.0,19.0,69,30.20,10.0,North,5.8,-,N/A,,Clear,10,2012-11-06 09:51:00
5:51 AM,28.4,19.4,69,30.21,10.0,North,6.9,-,N/A,,Partly Cloudy,10,2012-11-06 10:51:00
6:51 AM,30.0,21.0,69,30.23,10.0,North,8.1,-,N/A,,Scattered Clouds,10,2012-11-06 11:51:00
7:51 AM,34.0,21.0,59,30.25,10.0,North,10.4,-,N/A,,Scattered Clouds,10,2012-11-06 12:51:00
8:51 AM,36.0,19.9,52,30.24,10.0,NNE,10.4,-,N/A,,Mostly Cloudy,20,2012-11-06 13:51:00
9:51 AM,39.0,19.0,45,30.25,10.0,North,9.2,-,N/A,,Mostly Cloudy,10,2012-11-06 14:51:00
10:51 AM,39.9,18.0,41,30.25,10.0,NNE,8.1,-,N/A,,Mostly Cloudy,30,2012-11-06 15:51:00
11:51 AM,41.0,17.1,38,30.22,10.0,NNE,4.6,-,N/A,,Mostly Cloudy,30,2012-11-06 16:51:00
12:51 PM,43.0,17.1,35,30.20,10.0,Variable,3.5,-,N/A,,Scattered Clouds,0,2012-11-06 17:51:00
1:51 PM,45.0,18.0,34,30.17,10.0,Calm,Calm,-,N/A,,Scattered Clouds,0,2012-11-06 18:51:00
2:51 PM,44.1,18.0,35,30.17,10.0,ENE,5.8,-,N/A,,Scattered Clouds,70,2012-11-06 19:51:00
3:51 PM,42.1,18.0,38,30.15,10.0,NNE,6.9,-,N/A,,Scattered Clouds,30,2012-11-06 20:51:00
4:51 PM,39.2,17.6,42,30.14,10.0,NNE,8.1,-,N/A,,Scattered Clouds,30,2012-11-06 21:51:00
5:51 PM,42.1,18.0,38,30.15,10.0,East,4.6,-,N/A,,Scattered Clouds,80,2012-11-06 22:51:00
6:51 PM,41.0,19.9,43,30.14,10.0,ENE,6.9,-,N/A,,Scattered Clouds,60,2012-11-06 23:51:00
7:51 PM,39.9,23.0,51,30.14,10.0,ENE,8.1,-,N/A,,Scattered Clouds,60,2012-11-07 00:51:00
8:51 PM,39.9,23.0,51,30.11,10.0,NE,9.2,-,N/A,,Scattered Clouds,50,2012-11-07 01:51:00
9:51 PM,39.9,24.1,53,30.12,10.0,ENE,8.1,-,N/A,,Mostly Cloudy,60,2012-11-07 02:51:00
10:51 PM,37.0,24.1,59,30.09,10.0,North,10.4,-,N/A,,Mostly Cloudy,10,2012-11-07 03:51:00
11:51 PM,37.0,21.9,54,30.09,10.0,NNE,12.7,-,N/A,,Overcast,20,2012-11-07 04:51:00